Temperature
17 17 17 17 17 17 17 17 17 17 17 17 17 18 18 18 18 18 18 18 18 18 18 18 18 18 18 18 18 18 18 18 18 18 18 18 18 18 18 18 18 18 18
17 17 17 17 17 17 17 17 17 17 17 17 17 17 17 18 18 18 18 18 18 18 18 18 18 18 18 18 18 18 18 18 18 18 18 18 18 18 18 18 18 18 18
17 17 17 17 17 17 17 17 17 17 17 17 17 17 17 18 17 17 17 17 17 18 18 18 18 17 17 18 18 18 18 18 17 18 18 18 18 17 17 18 18 18 18
17 17 17 17 17 17 17 17 17 17 17 17 17 17 17 17 17 17 17 17 17 17 17 18 17 17 17 17 17 17 17 17 17 17 17 17 17 17 17 17 17 17 17
17 17 17 17 17 17 17 17 17 17 17 17 17 17 17 17 17 17 17 17 17 17 17 17 17 17 17 17 17 17 17 17 17 17 17 17 17 17 17 17 17 17 17
17 17 17 17 17 17 17 17 17 17 17 17 17 17 17 17 17 17 17 17 17 17 17 17 17 17 17 17 17 17 17 17 17 17 17 17 17 17 17 17 17 17 17
17 17 17 17 17 17 17 17 17 17 17 17 17 17 17 17 17 17 17 17 17 17 17 17 17 17 17 17 17 17 17 17 17 16 16 16 17 17 17 17 17 16 16
17 17 17 17 17 17 17 17 17 17 17 17 17 17 17 17 16 16 16 16 16 16 16 16 16 16 16 16 16 16 16 16 16 16 16 16 16 17 16 16 16 16 16
17 17 17 17 17 17 17 17 17 17 17 17 17 17 17 16 16 16 16 16 16 16 16 16 16 16 16 16 16 16 16 16 16 16 16 16 16 16 16 16 16 16 16
17 17 17 17 17 17 17 17 17 17 17 17 17 17 17 16 16 16 16 16 16 16 16 16 16 16 16 16 16 16 16 16 16 16 16 16 16 16 16 16 16 16 16
17 17 17 17 17 17 17 17 17 17 17 17 16 16 16 16 16 16 16 16 16 16 16 16 16 16 16 16 16 15 16 16 15 15 15 15 15 16 16 16 16 16 16
17 17 16 17 16 16 16 16 16 16 16 16 16 16 16 16 16 16 16 16 16 16 15 15 15 15 15 15 15 15 15 15 15 15 15 15 15 15 15 15 15 15 15
16 16 16 16 16 16 16 16 16 16 16 16 16 16 16 16 16 16 16 16 16 16 15 15 15 15 15 15 15 15 15 15 15 15 15 15 15 15 15 15 15 15 15
16 16 16 16 16 16 16 16 16 16 16 16 16 16 16 16 16 16 16 15 15 15 15 15 15 15 15 15 15 15 15 15 15 15 15 15 15 15 15 15 15 15 15
16 16 16 16 16 16 16 16 16 16 16 16 16 16 15 16 15 15 15 15 15 15 15 15 15 15 15 14 14 14 14 14 14 14 15 14 14 14 15 15 15 15 15
16 16 16 16 16 16 16 15 15 15 15 15 15 15 15 15 15 15 15 15 15 15 15 15 15 15 15 14 14 14 14 14 14 14 14 14 14 14 14 14 14 14 14
16 16 16 16 16 16 15 15 15 15 15 15 15 15 15 15 15 15 15 15 15 15 15 15 14 14 14 14 14 14 14 14 14 14 14 14 14 14 14 14 14 14 14
16 16 16 16 16 15 15 15 15 15 15 15 15 15 15 15 15 15 15 15 15 15 14 14 14 14 14 14 14 14 14 14 14 14 14 14 14 14 14 14 14 14 14
16 16 16 15 15 15 15 15 15 15 15 15 15 15 15 15 15 14 14 14 14 14 14 14 14 14 14 14 14 14 14 14 14 14 14 14 14 14 14 14 14 14 14
16 16 16 15 15 15 15 15 15 15 15 15 15 14 14 14 14 14 14 14 14 14 14 14 14 14 14 14 13 13 13 13 13 13 13 13 13 13 13 13 13 13 13
16 16 15 15 15 15 15 15 15 15 15 14 14 14 14 14 14 14 14 14 14 14 14 14 14 14 14 13 13 13 13 13 13 13 13 13 13 13 13 13 13 13 13
16 16 15 15 15 15 15 15 15 15 14 14 14 14 14 14 14 14 14 14 14 14 14 14 14 14 13 13 13 13 13 13 13 13 13 13 13 13 13 12 12 13 13
16 15 15 15 15 15 15 15 15 14 14 14 14 14 14 14 14 13 13 13 13 13 13 13 13 13 13 13 13 13 13 12 12 12 12 12 12 12 12 12 12 12 12
15 15 15 15 15 14 14 14 14 14 14 14 14 14 14 14 13 13 13 13 13 13 13 13 13 13 13 13 13 13 13 12 12 12 12 12 12 12 12 12 12 12 12
15 15 15 15 14 14 14 14 14 14 14 14 14 14 14 13 13 13 13 13 13 13 13 13 13 13 13 13 13 13 12 12 12 12 11 11 11 11 11 12 12 12 12
15 15 15 14 14 14 14 14 14 14 14 14 14 14 14 13 13 13 13 13 13 13 12 12 13 13 13 13 12 12 12 12 12 12 11 11 11 11 11 11 11 11 11
Wind_Speed
4 5 6 7 8 9 10 10 10 10 10 10 11 11 11 11 11 12 11 11 11 11 11 11 11 11 11 11 11 10 10 8 9 9 8 8 8 8 8 8 7 6 8
2 3 5 6 8 9 10 10 10 10 10 10 11 11 11 11 11 11 11 11 11 11 11 11 11 11 11 11 11 10 10 10 10 9 8 7 7 7 7 7 7 6 7
2 3 4 7 8 9 10 9 9 9 9 10 11 12 12 11 11 11 10 11 11 12 11 11 11 11 11 11 11 11 11 10 10 10 9 7 7 8 8 7 7 7 7
2 3 4 7 8 9 10 10 10 11 11 11 12 12 12 12 11 11 11 11 12 12 12 12 12 11 11 12 12 11 11 11 11 10 8 7 7 8 8 8 7 7 7
3 4 4 7 8 9 10 11 11 12 13 13 12 12 12 12 11 11 12 12 13 12 13 13 12 12 12 12 12 12 12 12 12 10 9 8 7 8 8 8 7 7 6
4 5 5 8 9 10 10 11 12 12 12 12 12 12 12 11 12 12 12 12 13 13 13 12 12 12 12 12 12 12 12 12 11 10 9 8 7 8 8 8 7 7 7
4 5 6 8 9 10 11 11 11 12 12 11 12 12 12 12 12 12 12 12 12 13 12 12 12 12 12 12 12 12 12 12 10 9 8 7 8 9 8 8 8 8 8
4 5 6 8 9 10 11 11 11 11 11 11 11 12 12 12 11 12 12 12 12 13 13 13 13 13 13 12 12 12 11 11 10 8 7 7 8 10 10 9 9 9 9
5 5 6 7 8 9 10 10 11 11 11 11 11 11 12 12 12 12 12 12 12 12 13 13 13 13 13 13 13 13 13 12 10 8 7 7 9 10 10 10 10 10 9
5 5 5 7 8 8 8 9 10 11 11 11 11 11 12 12 12 12 12 12 12 13 13 13 14 13 14 14 14 13 13 12 10 9 7 8 10 10 10 10 10 9 9
4 4 4 5 6 7 7 8 9 10 11 11 10 11 11 10 10 10 11 12 12 12 13 13 14 14 14 14 14 13 12 10 9 8 7 9 9 10 10 10 10 10 9
3 3 3 4 5 6 6 7 8 8 9 10 9 10 10 10 10 10 11 12 12 12 13 13 13 12 12 10 11 12 10 10 9 7 8 10 10 10 11 10 10 10 10
2 3 3 3 4 5 5 6 6 6 7 8 9 9 9 9 9 9 9 9 10 11 10 10 10 10 9 8 8 9 9 9 8 8 9 11 11 11 11 10 10 10 10
3 2 3 3 4 4 5 5 5 4 5 5 7 7 7 6 6 6 6 7 8 7 8 8 7 9 9 9 9 8 9 8 8 8 9 11 11 12 12 11 11 10 10
3 2 2 3 3 3 4 3 4 4 4 5 5 6 7 5 4 5 5 6 6 7 6 6 7 7 7 7 8 8 8 8 9 9 9 11 12 12 12 13 12 11 11
2 2 2 3 3 4 3 3 2 3 3 4 5 5 6 5 4 4 4 5 5 6 6 6 6 6 5 6 7 8 7 7 8 9 9 10 11 12 12 12 12 12 12
2 2 3 3 4 4 3 3 3 3 4 4 4 5 5 5 5 5 4 4 5 6 7 7 7 6 5 6 6 6 7 7 8 8 9 10 10 12 12 13 12 12 12
3 3 2 3 4 3 3 3 3 3 4 3 3 4 4 4 5 5 4 3 4 6 5 4 4 5 5 5 4 4 5 6 7 8 9 10 10 10 12 13 13 12 12
3 3 3 3 3 3 3 3 4 4 4 3 3 3 4 4 5 5 4 3 4 4 4 4 4 4 4 4 4 4 5 5 5 7 8 9 10 11 11 12 13 12 11
3 3 3 3 3 3 3 4 4 4 4 4 4 3 4 4 5 5 4 4 4 4 3 4 4 4 3 3 4 5 4 4 5 6 6 8 9 11 11 11 11 11 11
3 3 3 3 3 3 2 2 2 2 2 3 3 4 4 4 4 5 3 3 3 3 2 3 3 4 3 2 3 3 4 5 5 5 5 6 7 9 9 10 10 10 9
3 3 2 2 2 2 2 1 1 1 2 2 3 5 6 5 4 4 3 2 2 2 3 3 2 2 1 2 2 2 3 4 4 5 5 5 6 7 8 9 10 10 9
4 4 4 3 3 2 3 3 3 3 3 3 4 3 4 4 5 4 3 3 2 2 2 1 2 2 1 1 2 2 2 1 2 3 4 5 6 5 6 7 8 9 9
5 4 4 3 3 2 3 4 4 2 1 0 1 1 3 4 4 4 3 3 2 1 1 1 1 1 2 1 1 2 2 3 2 1 3 4 5 5 5 6 7 8 8
4 4 4 3 3 2 3 4 4 2 1 1 1 2 3 3 4 4 3 3 2 1 0 0 1 1 1 1 1 1 2 2 2 2 1 3 3 3 4 4 5 6 7
3 4 4 4 3 2 3 3 4 3 2 2 1 1 1 2 2 3 3 2 2 1 0 0 1 1 1 1 1 2 2 2 2 2 2 1 2 3 3 3 4 5 6
Wind_Direction
313 315 355 26 35 42 56 65 63 64 70 74 79 81 84 86 88 88 87 89 91 94 94 92 89 85 83 85 89 93 92 91 90 85 85 91 97 95 95 93 83 71 78
299 328 13 35 44 51 58 63 65 68 74 80 81 83 83 83 86 87 87 89 89 91 90 89 87 86 82 81 84 88 87 84 83 80 77 86 97 97 95 93 89 81 80
9 353 30 45 53 58 60 62 64 66 71 85 87 85 83 82 84 88 89 90 88 88 86 85 85 83 80 79 80 81 80 79 78 76 71 69 84 93 94 93 88 84 82
47 30 47 53 59 62 61 61 62 65 73 82 86 85 84 82 80 84 87 87 86 84 82 81 81 80 79 79 78 77 76 77 76 74 63 62 73 89 87 86 86 86 84
48 46 53 53 62 64 63 63 66 68 73 79 82 83 83 83 80 81 84 83 83 82 81 79 77 79 78 77 76 76 76 76 74 69 61 58 63 81 83 82 81 83 85
45 43 52 56 62 63 63 64 66 68 72 76 78 80 82 83 81 83 82 81 80 79 78 77 76 78 78 77 76 75 78 78 72 64 61 59 60 72 78 81 80 78 78
50 42 56 65 66 64 64 63 65 67 68 73 74 76 79 80 80 79 79 79 78 77 77 76 76 78 78 76 76 76 79 80 70 61 57 58 63 65 68 75 74 71 71
66 51 56 66 68 68 66 65 66 68 69 70 73 73 76 78 78 77 75 75 76 78 77 76 76 78 76 75 75 74 75 74 66 61 57 58 68 67 66 68 67 68 68
63 59 52 53 62 66 65 66 66 66 68 69 72 73 73 77 78 76 74 74 76 80 78 77 77 79 77 75 73 72 71 68 61 57 58 56 64 65 62 61 63 63 63
60 56 52 51 53 54 57 63 66 66 65 66 69 72 71 71 72 73 71 74 76 77 75 74 73 73 74 72 72 70 68 61 54 54 51 58 62 63 61 62 61 58 58
55 45 51 50 49 52 56 58 60 60 58 59 61 65 63 60 60 61 68 70 73 75 74 74 73 71 71 69 67 65 60 51 49 47 48 57 61 64 65 63 61 57 53
59 46 47 49 46 50 58 57 54 54 54 56 58 60 62 60 57 58 62 64 68 71 72 70 70 69 66 61 60 58 51 47 45 39 45 53 61 63 61 59 58 54 50
93 72 58 54 54 55 53 57 56 56 54 55 57 63 66 60 55 54 54 53 57 63 61 59 59 59 61 61 59 55 50 48 41 36 39 50 57 60 58 56 53 50 46
84 82 67 64 62 59 62 58 53 52 52 52 56 66 70 63 54 51 53 51 56 60 62 60 64 61 61 59 61 57 49 46 40 33 34 47 54 57 55 52 49 45 43
96 82 75 77 74 66 62 58 57 53 54 55 61 64 73 71 60 55 56 57 58 64 68 67 68 66 61 58 57 56 49 42 38 35 29 40 47 49 48 47 44 42 42
121 102 81 79 83 82 74 62 56 59 62 63 63 64 74 78 76 66 58 56 58 64 71 73 72 71 65 62 54 49 46 43 38 36 31 29 36 41 40 40 40 40 40
147 109 93 92 74 75 71 59 58 58 72 65 58 62 66 77 85 80 67 59 61 71 76 76 69 70 68 61 52 46 45 41 39 35 34 31 28 32 35 35 35 38 39
131 114 101 101 88 80 75 65 64 66 71 67 62 64 61 72 86 85 76 67 70 80 82 83 73 72 62 57 52 41 40 37 35 38 38 34 31 26 26 30 32 35 36
142 128 106 93 94 82 74 66 64 68 66 61 59 60 60 76 87 88 78 75 78 79 76 84 74 80 78 65 59 49 39 35 29 40 40 35 32 29 24 22 25 29 34
133 123 118 102 93 83 68 58 47 46 43 47 49 47 54 74 86 90 84 73 79 78 69 79 84 71 74 73 72 54 37 30 35 40 38 35 30 28 26 24 23 22 29
117 116 125 116 108 96 71 64 55 33 22 27 36 45 54 71 85 93 85 75 77 86 88 95 99 83 62 62 69 44 26 30 37 32 32 33 28 23 26 27 26 24 25
155 145 137 136 125 114 97 89 94 78 44 31 23 39 44 55 67 88 95 89 79 86 80 79 94 97 63 49 86 74 22 7 15 23 23 29 21 22 25 26 26 24 24
171 176 172 164 146 127 104 83 59 48 36 26 19 18 19 44 58 70 88 99 90 100 122 119 116 120 134 40 66 120 119 233 333 356 13 20 17 21 18 20 25 23 25
193 185 171 161 149 135 122 114 112 109 105 292 345 10 14 34 47 57 71 85 93 98 120 183 127 123 135 143 55 56 116 153 140 346 347 358 10 20 13 18 17 18 21
182 176 169 153 145 136 137 139 131 119 129 88 54 52 30 24 37 49 64 72 72 75 103 99 100 121 137 159 155 127 90 69 101 142 302 334 352 356 4 8 15 14 15
167 165 161 155 155 148 151 148 147 148 141 112 68 55 22 16 19 27 53 61 55 47 71 173 138 147 177 147 152 149 152 148 161 150 179 279 324 326 343 359 8 7 9
Height
1510 1508 1507 1504 1501 1497 1493 1494 1497 1497 1498 1499 1499 1500 1501 1501 1502 1502 1503 1504 1504 1504 1505 1506 1506 1507 1507 1506 1506 1507 1508 1510 1510 1511 1512 1512 1513 1514 1515 1515 1516 1516 1517
1512 1510 1508 1506 1504 1501 1499 1498 1498 1498 1498 1498 1500 1501 1502 1503 1503 1504 1505 1505 1506 1506 1507 1507 1508 1508 1508 1509 1509 1510 1510 1511 1511 1512 1512 1512 1513 1514 1515 1516 1517 1517 1517
1513 1511 1510 1508 1506 1505 1503 1502 1500 1498 1495 1496 1500 1503 1504 1504 1505 1506 1506 1507 1507 1508 1508 1509 1509 1510 1510 1510 1510 1511 1512 1512 1512 1513 1512 1512 1513 1515 1516 1516 1517 1518 1518
1514 1513 1512 1510 1509 1507 1506 1505 1502 1498 1495 1496 1501 1504 1505 1506 1507 1507 1508 1508 1509 1509 1510 1510 1510 1511 1511 1512 1512 1512 1513 1514 1514 1514 1514 1514 1515 1516 1516 1517 1517 1518 1518
1515 1515 1513 1513 1511 1510 1509 1508 1506 1503 1501 1502 1505 1506 1507 1508 1508 1509 1509 1510 1510 1511 1511 1512 1512 1512 1513 1513 1514 1514 1514 1515 1515 1515 1515 1516 1516 1517 1517 1518 1518 1518 1519
1517 1516 1515 1514 1514 1513 1512 1511 1510 1508 1508 1508 1508 1509 1510 1510 1510 1511 1511 1512 1512 1512 1513 1513 1514 1514 1514 1514 1515 1515 1516 1516 1517 1517 1517 1517 1518 1518 1518 1518 1519 1519 1519
1518 1518 1517 1516 1516 1515 1514 1514 1513 1512 1512 1512 1512 1512 1512 1512 1513 1513 1513 1513 1513 1514 1514 1514 1515 1515 1516 1516 1516 1517 1517 1518 1518 1518 1518 1518 1519 1519 1519 1519 1519 1520 1520
1520 1519 1519 1518 1518 1517 1517 1516 1516 1516 1515 1515 1514 1514 1515 1515 1515 1515 1515 1515 1515 1515 1516 1516 1516 1517 1517 1518 1518 1518 1519 1519 1519 1520 1520 1520 1520 1520 1520 1520 1520 1520 1520
1521 1521 1521 1520 1520 1520 1519 1519 1519 1518 1518 1517 1517 1517 1517 1517 1517 1517 1517 1517 1517 1517 1518 1518 1518 1519 1519 1519 1520 1520 1520 1520 1520 1521 1521 1521 1521 1521 1521 1520 1520 1520 1520
1523 1523 1523 1522 1522 1522 1522 1521 1521 1521 1520 1520 1520 1520 1519 1519 1519 1519 1519 1519 1519 1519 1520 1520 1520 1520 1521 1521 1521 1521 1522 1522 1522 1522 1522 1522 1522 1522 1522 1521 1521 1521 1520
1524 1524 1524 1524 1524 1524 1524 1523 1523 1523 1522 1522 1522 1522 1522 1522 1521 1521 1521 1521 1521 1521 1522 1522 1522 1522 1522 1522 1523 1523 1523 1523 1523 1523 1523 1523 1523 1523 1522 1522 1522 1521 1521
1525 1526 1526 1526 1525 1525 1525 1525 1525 1525 1524 1524 1524 1524 1524 1524 1523 1523 1523 1523 1523 1523 1524 1524 1524 1524 1524 1524 1524 1524 1524 1524 1524 1524 1525 1524 1524 1524 1523 1523 1522 1522 1521
1527 1527 1527 1527 1527 1527 1527 1527 1527 1526 1526 1526 1526 1526 1526 1525 1525 1525 1525 1524 1524 1525 1525 1525 1525 1526 1526 1526 1526 1526 1526 1526 1526 1526 1526 1526 1525 1525 1524 1523 1523 1522 1521
1528 1528 1528 1528 1528 1528 1528 1528 1528 1528 1528 1528 1528 1528 1528 1527 1527 1527 1526 1526 1526 1526 1526 1527 1527 1527 1527 1527 1527 1527 1527 1527 1527 1527 1527 1527 1527 1526 1525 1524 1523 1522 1522
1529 1529 1530 1530 1530 1530 1530 1530 1530 1530 1530 1530 1529 1529 1529 1529 1529 1529 1528 1528 1528 1528 1528 1528 1528 1528 1529 1529 1529 1528 1529 1529 1529 1528 1528 1528 1527 1527 1526 1525 1524 1523 1522
1530 1531 1531 1531 1531 1531 1531 1531 1531 1531 1531 1531 1531 1531 1531 1531 1530 1530 1530 1530 1530 1530 1530 1530 1530 1530 1530 1530 1530 1530 1530 1530 1530 1529 1529 1529 1528 1527 1526 1525 1524 1523 1522
1531 1532 1532 1532 1532 1532 1532 1532 1532 1532 1532 1532 1532 1532 1533 1532 1532 1532 1532 1532 1532 1532 1531 1532 1532 1531 1531 1532 1531 1531 1531 1531 1531 1530 1530 1530 1529 1528 1527 1526 1525 1524 1523
1532 1532 1533 1533 1533 1533 1533 1533 1533 1533 1533 1533 1534 1534 1534 1534 1534 1534 1533 1533 1533 1533 1533 1533 1533 1533 1533 1533 1533 1533 1532 1532 1532 1532 1531 1530 1530 1529 1528 1527 1526 1524 1523
1532 1533 1533 1534 1534 1534 1534 1534 1534 1534 1534 1534 1535 1535 1535 1535 1535 1535 1535 1535 1535 1535 1535 1534 1534 1534 1534 1534 1534 1533 1533 1533 1533 1532 1532 1531 1531 1530 1529 1528 1526 1525 1524
1533 1533 1534 1534 1534 1535 1535 1535 1535 1535 1535 1535 1535 1535 1536 1536 1536 1536 1536 1536 1536 1536 1536 1535 1535 1535 1535 1534 1534 1534 1534 1534 1534 1533 1533 1532 1531 1531 1530 1528 1527 1526 1525
1532 1533 1534 1534 1535 1535 1535 1535 1535 1535 1536 1536 1536 1536 1536 1536 1536 1536 1536 1536 1536 1536 1536 1536 1536 1536 1535 1535 1535 1535 1535 1535 1534 1534 1533 1533 1532 1531 1530 1529 1528 1526 1525
1532 1533 1534 1534 1535 1535 1536 1536 1536 1536 1536 1537 1537 1537 1537 1537 1537 1537 1536 1536 1536 1537 1537 1536 1536 1536 1536 1536 1536 1535 1535 1536 1535 1535 1534 1534 1533 1532 1531 1530 1528 1527 1526
1531 1532 1533 1534 1535 1536 1536 1537 1537 1537 1537 1537 1537 1537 1537 1537 1537 1537 1537 1536 1536 1537 1537 1537 1537 1537 1536 1536 1536 1536 1536 1536 1536 1536 1535 1534 1533 1532 1531 1530 1529 1527 1526
1530 1531 1533 1534 1535 1536 1536 1536 1537 1537 1537 1537 1537 1537 1537 1537 1537 1537 1537 1536 1536 1536 1536 1536 1537 1536 1536 1536 1536 1536 1536 1536 1536 1535 1535 1534 1533 1532 1531 1530 1529 1528 1527
1529 1530 1532 1533 1534 1535 1536 1536 1537 1537 1537 1537 1537 1537 1537 1537 1537 1537 1536 1536 1536 1536 1536 1536 1536 1536 1536 1536 1535 1535 1535 1535 1535 1534 1534 1534 1533 1533 1531 1530 1529 1528 1527
1527 1528 1530 1532 1533 1534 1535 1536 1536 1536 1537 1537 1537 1537 1536 1536 1536 1536 1536 1536 1535 1535 1535 1535 1535 1535 1535 1535 1535 1534 1534 1534 1534 1533 1533 1532 1532 1532 1531 1531 1529 1528 1527